Location: Bergfeld
(52.0500°N, 11.7833°E)
Time: 17:01:49
(UTC+00:00)

USA 215 - Pass Details

Date: 17 February 2020
Orbit: 1098 x 1110 km, 123.0° (Epoch: 08 March)

Event Time Altitude Azimuth Distance (km) Brightness Sun altitude
Rises 03:10:16 0° 65° (ENE) 3,923 7.3 -30.3°
Reaches altitude 10° 03:12:45 10° 64° (ENE) 2,965 6.4 -29.9°
Maximum altitude 03:19:16 72° 342° (NNW) 1,160 3.2 -29.0°
Enters shadow 03:20:00 66° 299° (WNW) 1,200 3.2 -28.9°
